User: anonymous   Login
Location: Dunedin
(45.8670°S, 170.5000°E)
Time: 14:03:01
(UTC+13:00)
Language:

SJ-6B - Orbit

View from above orbital plane
View from above orbital plane
View from above satellite
View from above satellite

Ground track
Ground track

The orbit data is extracted from the following two-line orbital elements,

1 28415U 04035C   19294.70576090 +.00000024 +00000-0 +58880-5 0  9991
2 28415 097.6486 333.4442 0053313 089.4610 271.2726 15.06747068827534
Epoch (UTC): 21 October 2019 16:56:17
Eccentricity: 0.0053313
inclination: 97.6486°
perigee height: 509 km
apogee height: 583 km
right ascension of ascending node: 333.4442°
argument of perigee: 89.4610°
revolutions per day: 15.06747068
mean anomaly at epoch: 271.2726°
orbit number at epoch: 82753

The dashed part of the orbit path shows where the satellite is in the earth's shadow,  

DLR